Retour au catalogue

STARLINK-34156

ActifCommunicationsVLEO
NORAD 64108·PAYLOAD·🇺🇸 United States

Lancé May 23, 2025 depuis Vandenberg Space Force Base

Loading…

Prochains Passages (prochaines 24 heures)

TLE

FraisSource: CelesTrak SupGP

Époque: Sep 14, 2026, 14:40 UTC

1 64108C 25110N   26257.61159722 -.00024150  00000+0 -77685-3 0  2579
2 64108  53.1591 227.7991 0001478  93.3044  48.4768 15.31703066    15

Suivez STARLINK-34156 en temps réel avec AllMySat

Download on the App Store